Location: Cucq
(50.4773°N, 1.6202°E)
Time: 10:35:09
(UTC+00:00)

Cosmos 1766 - Pass Details

Date: 07 August 2020
Orbit: 522 x 543 km, 82.5° (Epoch: 20 September)

Event Time Altitude Azimuth Distance (km) Brightness Sun altitude
Exits shadow 02:26:41 32° 220° (SW) 932 3.9 -15.8°
Maximum altitude 02:28:15 56° 283° (WNW) 638 3.4 -15.6°
Drops below altitude 10° 02:32:06 10° 3° (N) 1,783 6.8 -15.3°
Sets 02:34:17 0° 7° (N) 2,675 7.9 -15.1°
